Regional Weather Roundup
Issued by NWS Wakefield, VA

Home | Current Version | Previous Version | Text Only | Print | Product List | Glossary Off
Versions: 1 2 3 4 5 6 7 8 9 10 11 12 13 14 15 16 17 18 19 20 21 22 23 24 25 26 27

000
ASUS41 KAKQ 242215
RWRAKQ

REGIONAL WEATHER ROUNDUP
NATIONAL WEATHER SERVICE WAKEFIELD VA
600 PM EDT TUE MAY 24 2016

Note: "fair" indicates few or no clouds below 12,000 feet with no
significant weather and/or obstructions to visibility. * = Denotes
station may not report precipitation (e.g., rain,snow,etc.),
thunder or fog.

VAZ042-051-052>054-056-242300-
NORTHERN VIRGINIA

CITY           SKY/WX    TMP DP  RH WIND       PRES   REMARKS
WASH NATIONAL  PTSUNNY   83  49  30 W13       29.98S
DULLES         FAIR      82  48  30 W15       29.98F
FORT BELVOIR   NOT AVBL
QUANTICO       FAIR      83  50  31 NW7       29.99F
FREDERICKSBRG* FAIR      82  54  36 CALM      29.99S
STAFFORD*      FAIR      82  49  31 W7        30.03S
WARRENTON      FAIR      81  42  25 NW5       29.99F
CULPEPER*      FAIR      83  49  31 NW6       30.00F
MANASSAS*      SUNNY     82  48  30 NW8       29.99S
LEESBURG*      FAIR      82  52  34 NW14G22   30.00S
WINCHESTER     FAIR      81  48  32 W14       30.01S
FRONT ROYAL*   FAIR      79  50  36 NW3       30.01S
LURAY*         FAIR      81  46  30 NW7G16    30.03S
$$

VAZ048-049-060>072-079>083-242300-
CENTRAL AND SOUTH CENTRAL VIRGINIA

CITY           SKY/WX    TMP DP  RH WIND       PRES   REMARKS
RICHMOND       FAIR      82  50  32 W9        30.01S
CHESTERFIELD*  FAIR      82  52  34 W9        30.03F
PETERSBURG*    FAIR      83  53  35 SW9       30.03F
HANOVER        FAIR      82  51  34 W5        30.02F
TAPPAHANNOCK*  FAIR      83  47  28 W6        30.02S
QUINTON*       FAIR      81  56  42 CALM      30.01S
CHARLOTTSVILLE FAIR      80  54  40 SW5       30.01F
GORDONSVILLE*  MOCLDY    82  50  33 CALM      30.00S
ORANGE*        FAIR      81  52  36 CALM      30.02F
LOUISA*        FAIR      84  54  34 W6        30.00F
BUMPASS*       FAIR      81  53  37 CALM      30.01S
FARMVILLE*     FAIR      83  50  31 SW5       30.02S
CREWE*         FAIR      81  55  40 W6        30.03F
FORT PICKETT*  NOT AVBL
CHASE CITY*    FAIR      80  48  32 CALM      30.06S
CLARKSVILLE*   FAIR      79  55  44 W8        30.06S
SOUTH HILL*    FAIR      79  57  45 SW6       30.11F
LAWRENCEVILLE* FAIR      80  57  45 W3        30.05S
EMPORIA*       FAIR      79  55  44 SW6       30.06F
$$

VAZ088>098-242300-
SOUTHEAST VIRGINIA

CITY           SKY/WX    TMP DP  RH WIND       PRES   REMARKS
NORFOLK        FAIR      82  50  32 W7        30.02S
VIRGINIA BEACH FAIR      84  52  33 W9        30.01S
NORFOLK NAVAL  FAIR      82  52  35 W7        30.03S
WEST POINT*    FAIR      82  48  30 CALM      30.03S
SALUDA*        FAIR      80  53  38 NW5       30.02R
NEWPORT NEWS   FAIR      81  52  36 NW13      30.02S
LANGLEY AFB    NOT AVBL
FORT EUSTIS    NOT AVBL
WILLIAMSBURG*  FAIR      84  54  34 W7        30.03S
HR EXEC AP*    FAIR      82  55  39 NW8       30.04S
FRANKLIN*      PTSUNNY   81  53  37 W6        30.04S
US460-WAKEFLD  FAIR      83  51  33 W6        30.03R
$$

VAZ020-022-025-037-045-242300-
WEST CENTRAL AND SOUTHWEST VIRGINIA

CITY           SKY/WX    TMP DP  RH WIND       PRES   REMARKS
STAUNTON*      FAIR      79  48  34 NW6       30.06S
WAYNESBORO*    FAIR      79  46  31 W5        30.05F
HOT SPRINGS VA FAIR      70  38  31 W10       30.16S
LYNCHBURG      FAIR      79  50  36 SW9       30.07S
DANVILLE       FAIR      80  53  39 VRB6      30.07S
SOUTH BOSTON*  FAIR      80  52  36 SW10      30.06S
MARTINSVILLE   FAIR      79  52  39 SW3       30.10S
ROANOKE        FAIR      81  49  32 NW9       30.09F
BLACKSBURG     FAIR      77  49  37 CALM      30.15S
DUBLIN*        FAIR      78  46  31 CALM      30.13S
MARION*        FAIR      74  50  42 W8        30.18S
HILLSVILLE*    FAIR      74  47  38 NW8       30.14F
RICHLANDS*     FAIR      73  39  29 SW5       30.17R
WISE*          CLOUDY    77  41  27 SW7       30.17S
ABINGDON*      FAIR      77  46  33 W5        30.15F
$$

MDZ021>025-VAZ099-100-242300-
SOUTHERN MARYLAND AND THE DELMARVA PENINSULA

CITY           SKY/WX    TMP DP  RH WIND       PRES   REMARKS
PATUXENT RIVER PTSUNNY   81  49  32 W13       29.99R
BAY BRIDGE APT MOSUNNY   79  54  41 W9        29.97S
LEONARDTOWN    NOT AVBL
DOVER          NOT AVBL
GEORGETOWN     SUNNY     80  50  34 W10G20    29.97S
EASTON         MOSUNNY   81  59  47 W5        30.01S
CAMBRIDGE      MOSUNNY   77  50  38 W6        29.98S
SALISBURY      SUNNY     79  54  41 SW12      29.98S
OCEAN CITY     SUNNY     70  58  65 S9        29.99R
WALLOPS ISLAND FAIR      78  55  44 W10       30.01R
ACCOMACK*      FAIR      77  48  36 CALM      30.02R
$$

NCZ012>017-030>032-242300-
NORTH CENTRAL AND EASTERN NORTH CAROLINA

CITY           SKY/WX    TMP DP  RH WIND       PRES   REMARKS
ROANOKE RAPIDS FAIR      81  52  36 W5        30.06S
RALEIGH        MOSUNNY   78  55  44 SW9       30.09R
ELIZABETH CITY MOSUNNY   81  54  39 SW13      30.03S
AHOSKIE*       MOSUNNY   78  53  41 CALM      30.05S
EDENTON*       MOSUNNY   82  57  42 W3        30.06R
CURRITUCK*     MOSUNNY   82  52  35 W6        30.04R
KILL DEVIL HLS SUNNY     82  54  37 W6        30.04S
MANTEO         SUNNY     77  61  57 S8        30.05S
CAPE HATTERAS  SUNNY     72  62  71 SW12      30.08S
TARBORO*       FAIR      83  53  35 W8        30.07S
GOLDSBORO      SUNNY     83  49  30 SW9       30.07R
WASHINGTON     MOSUNNY   81  53  38 W5        30.06S
GREENVILLE     SUNNY     82  52  34 W8        30.08S
NEW BERN       MOSUNNY   81  53  37 SW5       30.08S
WILMINGTON     SUNNY     77  57  50 S13       30.10S
$$

VAZ048-242300-
ELSEWHERE

CITY           SKY/WX    TMP DP  RH WIND       PRES   REMARKS
HARRISBURG PA  MOSUNNY   81  47  30 NW14      29.93S
BALTIMORE      PTSUNNY   79  50  36 W8        29.96S
ANNAPOLIS      SUNNY     81  48  31 VRB7      29.96S
ANDREWS AFB    NOT AVBL
PHILADELPHIA   PTSUNNY   82  41  23 W13       29.91S
HENDERSON NC   SUNNY     78  51  38 W6        30.07S
GREENSBORO     MOSUNNY   79  49  34 SW8       30.09S
ROCKY MOUNT    SUNNY     82  52  35 SW6       30.07S
$$

VAZ100-242300-
MARINE

STATION/POSITION TIME  TEMP    WIND        PRES    WAVE   SWELL
                       AIR SEA DIR/SP/G            HT/PER HT/PER
                 (UTC) (F)     (DEG/KT/KT) (MB)    (FT/S) (FT/S)
BRANDYWINE LGT   2100   67     180/ 13/ 14 1014.4F
CAPE MAY NJ      2112   68 66  150/  9/ 12 1014.3S
LEWES DE         2100   78 60  270/  9/ 12 1014.4F
15NM E FENWICK I 2150   63 59              1015.1F   2/ 9
OCEAN-CITY-INLET 2100   68 63  210/  8/ 12 1014.7R
WACHAPREAGUE VA  2100   80 72  270/  5/  8   N/A
THOMAS POINT MD  2200   80 63  290/ 13/ 14 1016.0F
GOOSES REEF MD   2200   74 64  290/  6/  8 1016.2R   1/ 2
COVE POINT MD    2100   73     170/  2/  4 1015.9F
SOLOMONS ISLAND  2112   80 63  310/  4/  8   N/A
BISHOPS HEAD MD  2100   74 70  220/  7/  8 1015.6F
PINEY POINT MD   2100          290/  8/  9   N/A
POTOMAC MD       2200   71 64  270/  6/  6 1014.9R   1/ 2
CAMBRIDGE MD     2100   80 64  250/  8/ 11 1014.3R
LEWISETTA VA     2100   79 65  310/  6/  7 1015.6S
RAPPAHANNOCK LGT 2100           40/  5/  6 1016.9R
STINGRAY PT      2200   69 66  140/  6/  8 1016.9R   0
YORK RVR RNG VA  2100   78     270/ 10/ 10 1015.7R
YORKTOWN VA      2100   77 67  280/  3/  5 1016.1R
JAMESTOWN VA     2200   78 69  290/  4/  6   N/A
DOMINION TERM VA 2100   79     340/  6/  8 1016.5R
KIPTOPEKE VA     2100      65  340/  2/  2   N/A
CHES BAY BRIDGE  2106   75 66  240/  8/ 10 1016.4R
CAPE HENRY VA    2100   80     290/  8/ 12   N/A
CHESAPEAKE LGHT  2100   71     180/  7/  8 1017.2F
WILLOUBY STN VA  2100   78     290/ 11/ 12 1017.5R
CAPE HENRY BUOY  2112      64                N/A     2/ 9
1ST LANDING BUOY 2200   74 66  280/  4/  4 1016.6R   1/ 4
CAPE CHARLES BUO 2156      65                N/A     2/ 9   2/ 9
OFFSHORE WE BUOY 2151      61                N/A     2/ 9   2/ 9
64NM E OF VA BCH 2150   62 57  220/ 10/ 10 1017.1R   3/ 9   3/ 9
DUCK PIER NC     2100   76 61  230/ 11/ 12 1016.4F
44100 DUCK FRF   2154      62                N/A     2/ 9
44056 DUCK FRF   2141      64                N/A     2/ 9
OREGON INLET NC  2100   71 67  190/ 15/ 18 1017.6F
HATTERAS NC      2100   72 67  210/  8/ 12 1018.3F
DIAMOND SHLS NC  2150   73 79  230/ 16/ 17 1018.5F   3/ 9   3/ 9
CAPE LOOKOUT NC C1F1C2F2C3F3C4F4C5F5C6F6C7F7C8M1C9!



USA.gov is the U.S. government's official web portal to all federal, state and local government web resources and services.